{"data":{"norad_id":59008,"intl_designator":"2024-036L","name":"STARLINK-31460","alt_names":[],"object_type":"PAYLOAD","status":"ACTIVE","operator":null,"country":"US","launch_date":"2024-02-23","launch_site_code":"AFWTR","launch_vehicle":null,"mission":null,"orbit_class":"UNKNOWN","rcs_meters":null,"size_class":null,"mass_kg":null,"dimensions":null,"purposes":["comms"],"wikipedia_slug":null,"has_3d_model":false,"image_url":null,"decayed_at":null,"tle_current":{"epoch":"2026-09-20T22:42:18.983520Z","epoch_age_seconds":117819,"freshness":"FRESH","line1":"1 59008U 24036L   26263.94605305  .00000051  00000+0  12660-4 0  9992","line2":"2 59008  53.1596 249.3618 0001497  79.9118 280.2053 15.34388910145240","mean_motion":15.3438891,"eccentricity":0.0001497,"inclination_deg":53.1596,"raan_deg":249.3618,"arg_perigee_deg":79.9118,"mean_anomaly_deg":280.2053,"bstar":1.266e-5,"rev_number":14524,"period_min":93.848436378493,"perigee_km":461.71212350437,"apogee_km":463.76028094112,"semimajor_km":6840.8732022227,"source":"CELESTRAK","updated_at":"2026-09-21T09:00:34.024927Z"}}}